Location: Vancouver
(49.2500°N, 123.1330°W)
Time: 20:55:57
(UTC-07:00)

deb Explorer IX - Visible Passes

Search period start: 24 April 2014 00:00
Search period end: 04 May 2014 00:00
Orbit: 551 x 1233 km, 38.8° (Epoch: 23 April)

Date Brightness Start Highest point End Pass type
(mag) Time Alt. Az. Time Alt. Az. Time Alt. Az.
28 Apr ? 04:00:24 10° SSE 04:00:41 10° SSE 04:01:28 10° SSE visible
29 Apr ? 03:59:06 13° SSE 03:59:21 13° SSE 04:01:15 10° SE visible
30 Apr ? 03:57:48 15° S 03:58:01 15° SSE 04:00:27 10° SE visible
01 May ? 03:56:27 17° S 03:56:41 17° S 03:59:27 10° SE visible
02 May ? 03:55:07 19° S 03:55:21 19° S 03:58:21 10° SE visible
03 May ? 03:53:46 20° S 03:54:00 21° S 03:57:09 10° SE visible
